When you browse on this site, cookies collect data to enhance your experience and personalize the content and advertising you see.
Visit our Privacy Policy to learn more. By continuing to use the site, you agree to this use of cookies and data.
  • In Czech Republic
  • List of Countries
  • For 7 days
  • Water Temperature
  • Weather Map
  • Weather Widgets
  • user-avatar
    Login

    Hourly Weather Elbasan

    Today, 28 February, Friday

    Time Temperature Precipitation Wind Pressure Humidity
    00:00 +5°C° 0 mm 1 mps 733 mmHg 81%
    01:00 +5°C° 0 mm 1 mps 733 mmHg 80%
    02:00 +4°C° 0 mm 2 mps 733 mmHg 79%
    03:00 +4°C° 0 mm 2 mps 733 mmHg 78%
    04:00 +4°C° 0 mm 2 mps 732 mmHg 77%
    05:00 +4°C° 0.2 mm 2 mps 732 mmHg 80%
    06:00 +4°C° 0.2 mm 2 mps 731 mmHg 82%
    07:00 +4°C° 0.2 mm 2 mps 731 mmHg 84%
    08:00 +4°C° 0.8 mm 2 mps 731 mmHg 86%
    09:00 +4°C° 0.8 mm 3 mps 730 mmHg 89%
    10:00 +4°C° 0.8 mm 3 mps 730 mmHg 91%
    11:00 +4°C° 1.6 mm 3 mps 729 mmHg 92%
    12:00 +5°C° 1.6 mm 3 mps 729 mmHg 93%
    13:00 +5°C° 1.6 mm 4 mps 729 mmHg 94%
    14:00 +7°C° 1.3 mm 3 mps 730 mmHg 91%
    15:00 +7°C° 1.3 mm 3 mps 730 mmHg 89%
    16:00 +8°C° 1.3 mm 2 mps 731 mmHg 86%
    17:00 +6°C° 0.2 mm 2 mps 732 mmHg 88%
    18:00 +5°C° 0.2 mm 2 mps 732 mmHg 90%
    19:00 +4°C° 0.2 mm 2 mps 733 mmHg 91%
    20:00 +5°C° 0 mm 1 mps 734 mmHg 89%
    21:00 +4°C° 0 mm 1 mps 735 mmHg 87%
    22:00 +4°C° 0 mm 1 mps 735 mmHg 85%
    23:00 +3°C° 0 mm 1 mps 735 mmHg 83%

    Tomorrow, 29 February, Saturday

    Time Temperature Precipitation Wind Pressure Humidity
    00:00 +3°C° 0 mm 1 mps 736 mmHg 81%
    01:00 +2°C° 0 mm 1 mps 736 mmHg 79%
    02:00 +2°C° 0 mm 1 mps 736 mmHg 77%
    03:00 +2°C° 0 mm 1 mps 736 mmHg 75%
    04:00 +2°C° 0 mm 1 mps 736 mmHg 73%
    05:00 +2°C° 0 mm 1 mps 737 mmHg 71%
    06:00 +2°C° 0 mm 1 mps 737 mmHg 69%
    07:00 +2°C° 0 mm 1 mps 737 mmHg 67%
    08:00 +4°C° 0 mm 1 mps 738 mmHg 64%
    09:00 +6°C° 0 mm 1 mps 738 mmHg 60%
    10:00 +8°C° 0 mm 1 mps 738 mmHg 56%
    11:00 +9°C° 0 mm 1 mps 738 mmHg 55%
    12:00 +9°C° 0 mm 1 mps 737 mmHg 53%
    13:00 +9°C° 0 mm 0 mps 737 mmHg 52%
    14:00 +10°C° 0 mm 1 mps 737 mmHg 54%
    15:00 +10°C° 0 mm 1 mps 736 mmHg 56%
    16:00 +10°C° 0 mm 1 mps 736 mmHg 59%
    17:00 +9°C° 0 mm 1 mps 736 mmHg 60%
    18:00 +7°C° 0 mm 1 mps 736 mmHg 61%
    19:00 +6°C° 0 mm 1 mps 736 mmHg 62%
    20:00 +6°C° 0 mm 1 mps 736 mmHg 61%
    21:00 +6°C° 0 mm 1 mps 737 mmHg 60%
    22:00 +6°C° 0 mm 1 mps 737 mmHg 59%
    23:00 +6°C° 0 mm 1 mps 737 mmHg 58%

    Day after tomorrow, 1 March, Sunday

    Time Temperature Precipitation Wind Pressure Humidity
    00:00 +6°C° 0 mm 1 mps 737 mmHg 58%
    01:00 +6°C° 0 mm 1 mps 736 mmHg 58%
    02:00 +6°C° 0 mm 1 mps 736 mmHg 58%
    03:00 +5°C° 0 mm 1 mps 736 mmHg 58%
    04:00 +5°C° 0 mm 1 mps 736 mmHg 58%
    05:00 +5°C° 0 mm 1 mps 736 mmHg 58%
    06:00 +6°C° 0 mm 1 mps 736 mmHg 58%
    07:00 +6°C° 0 mm 1 mps 736 mmHg 58%
    08:00 +8°C° 0 mm 1 mps 736 mmHg 56%
    09:00 +10°C° 0 mm 1 mps 736 mmHg 53%
    10:00 +11°C° 0 mm 1 mps 736 mmHg 50%
    11:00 +12°C° 0 mm 1 mps 736 mmHg 50%
    12:00 +13°C° 0 mm 1 mps 736 mmHg 50%
    13:00 +14°C° 0 mm 1 mps 735 mmHg 50%
    14:00 +14°C° 0 mm 1 mps 735 mmHg 55%
    15:00 +14°C° 0 mm 1 mps 734 mmHg 60%
    16:00 +14°C° 0 mm 1 mps 734 mmHg 65%
    17:00 +12°C° 0 mm 1 mps 734 mmHg 67%
    18:00 +10°C° 0 mm 2 mps 734 mmHg 70%
    19:00 +9°C° 0 mm 2 mps 734 mmHg 72%
    20:00 +9°C° 0 mm 2 mps 734 mmHg 73%
    21:00 +8°C° 0 mm 2 mps 734 mmHg 74%
    22:00 +8°C° 0 mm 2 mps 734 mmHg 74%
    23:00 +8°C° 0 mm 2 mps 734 mmHg 76%

    2 March, Monday

    Time Temperature Precipitation Wind Pressure Humidity
    00:00 +9°C° 0 mm 2 mps 734 mmHg 77%
    01:00 +9°C° 0 mm 2 mps 733 mmHg 78%
    02:00 +9°C° 0.2 mm 2 mps 733 mmHg 80%
    03:00 +9°C° 0.2 mm 2 mps 732 mmHg 83%
    04:00 +9°C° 0.2 mm 2 mps 732 mmHg 85%
    05:00 +9°C° 1.2 mm 2 mps 732 mmHg 88%
    06:00 +9°C° 1.2 mm 3 mps 732 mmHg 91%
    07:00 +10°C° 1.2 mm 3 mps 731 mmHg 94%
    08:00 +10°C° 0.7 mm 3 mps 732 mmHg 91%
    09:00 +11°C° 0.7 mm 3 mps 732 mmHg 88%
    10:00 +12°C° 0.7 mm 4 mps 732 mmHg 85%
    11:00 +13°C° 0.7 mm 4 mps 732 mmHg 83%
    12:00 +13°C° 0.7 mm 5 mps 732 mmHg 80%
    13:00 +14°C° 0.7 mm 6 mps 732 mmHg 77%
    14:00 +14°C° 0.4 mm 5 mps 732 mmHg 76%
    15:00 +14°C° 0.4 mm 4 mps 732 mmHg 76%
    16:00 +14°C° 0.4 mm 3 mps 731 mmHg 75%
    17:00 +12°C° 0 mm 3 mps 731 mmHg 79%
    18:00 +12°C° 0 mm 2 mps 732 mmHg 83%
    19:00 +10°C° 0 mm 2 mps 732 mmHg 87%
    20:00 +10°C° 0 mm 2 mps 731 mmHg 86%
    21:00 +9°C° 0 mm 2 mps 731 mmHg 86%
    22:00 +9°C° 0 mm 2 mps 731 mmHg 85%
    23:00 +9°C° 0 mm 2 mps 731 mmHg 84%

    3 March, Tuesday

    Time Temperature Precipitation Wind Pressure Humidity
    00:00 +9°C° 0 mm 2 mps 731 mmHg 83%
    01:00 +9°C° 0 mm 3 mps 730 mmHg 82%
    02:00 +9°C° 0 mm 3 mps 730 mmHg 82%
    03:00 +9°C° 0 mm 3 mps 729 mmHg 81%
    04:00 +9°C° 0 mm 3 mps 729 mmHg 81%
    05:00 +10°C° 0.3 mm 3 mps 728 mmHg 82%
    06:00 +10°C° 0.3 mm 3 mps 728 mmHg 83%
    07:00 +10°C° 0.3 mm 3 mps 728 mmHg 84%
    08:00 +11°C° 0.4 mm 3 mps 728 mmHg 84%
    09:00 +11°C° 0.4 mm 3 mps 728 mmHg 83%
    10:00 +12°C° 0.4 mm 3 mps 728 mmHg 83%
    11:00 +12°C° 0.4 mm 3 mps 727 mmHg 82%
    12:00 +12°C° 0.4 mm 3 mps 727 mmHg 81%
    13:00 +12°C° 0.4 mm 3 mps 726 mmHg 80%
    14:00 +12°C° 0.6 mm 3 mps 726 mmHg 82%
    15:00 +12°C° 0.6 mm 3 mps 725 mmHg 83%
    16:00 +11°C° 0.6 mm 3 mps 725 mmHg 85%
    17:00 +11°C° 0.7 mm 3 mps 724 mmHg 86%
    18:00 +11°C° 0.7 mm 3 mps 724 mmHg 87%
    19:00 +10°C° 0.7 mm 3 mps 723 mmHg 88%
    20:00 +10°C° 1 mm 3 mps 723 mmHg 89%
    21:00 +10°C° 1 mm 3 mps 723 mmHg 90%
    22:00 +10°C° 1 mm 2 mps 723 mmHg 91%
    23:00 +10°C° 0.6 mm 2 mps 723 mmHg 90%

    4 March, Wednesday

    Time Temperature Precipitation Wind Pressure Humidity
    00:00 +10°C° 0.6 mm 2 mps 723 mmHg 90%
    01:00 +9°C° 0.6 mm 2 mps 722 mmHg 89%
    02:00 +9°C° 1.5 mm 2 mps 722 mmHg 91%
    03:00 +9°C° 1.5 mm 2 mps 722 mmHg 93%
    04:00 +9°C° 1.5 mm 1 mps 722 mmHg 95%
    05:00 +9°C° 0.4 mm 1 mps 723 mmHg 94%
    06:00 +9°C° 0.4 mm 1 mps 723 mmHg 92%
    07:00 +9°C° 0.4 mm 1 mps 724 mmHg 91%
    08:00 +9°C° 0.2 mm 2 mps 724 mmHg 82%
    09:00 +10°C° 0.2 mm 2 mps 724 mmHg 74%
    10:00 +11°C° 0.2 mm 3 mps 725 mmHg 65%
    11:00 +11°C° 0.3 mm 3 mps 725 mmHg 65%
    12:00 +12°C° 0.3 mm 3 mps 725 mmHg 65%
    13:00 +12°C° 0.3 mm 3 mps 725 mmHg 65%
    14:00 +13°C° 0.5 mm 2 mps 725 mmHg 68%
    15:00 +12°C° 0.5 mm 2 mps 725 mmHg 70%
    16:00 +12°C° 0.5 mm 1 mps 725 mmHg 72%
    17:00 +11°C° 0.2 mm 1 mps 725 mmHg 77%
    18:00 +10°C° 0.2 mm 1 mps 725 mmHg 82%
    19:00 +9°C° 0.2 mm 1 mps 726 mmHg 87%
    20:00 +8°C° 0 mm 0 mps 726 mmHg 88%
    21:00 +8°C° 0 mm 0 mps 727 mmHg 89%
    22:00 +8°C° 0 mm 0 mps 727 mmHg 89%
    23:00 +7°C° 0 mm 0 mps 727 mmHg 90%
    Show more